| time (UTC) | temp F | wind direction | speed MPH | gust MPH | rain 1hr in | rain 24hr in | rain mn in | humidity % | barometer mb |
| 20260509212514 | 63 | 206 | 2.0 | 2.0 | 0.00 | 0.00 | 0.00 | 74 | 1010.8 |
| 20260509212011 | 62 | 120 | 2.0 | 3.0 | 0.00 | 0.00 | 0.00 | 75 | 1010.9 |
| 20260509211506 | 63 | 234 | 1.0 | 1.0 | 0.00 | 0.00 | 0.00 | 76 | 1011.0 |
| 20260509211003 | 63 | 152 | 4.0 | 6.0 | 0.00 | 0.00 | 0.00 | 74 | 1011.0 |
| 20260509210500 | 62 | 328 | 0.0 | 1.0 | 0.00 | 0.00 | 0.00 | 77 | 1011.1 |
| 20260509205955 | 61 | 139 | 3.0 | 3.0 | 0.00 | 0.00 | 0.00 | 79 | 1011.2 |
| 20260509205450 | 60 | 65 | 3.0 | 3.0 | 0.00 | 0.00 | 0.00 | 80 | 1011.1 |
| 20260509204946 | 60 | 332 | 1.0 | 1.0 | 0.00 | 0.00 | 0.00 | 83 | 1011.1 |
| 20260509204443 | 59 | 31 | 1.0 | 2.0 | 0.00 | 0.00 | 0.00 | 84 | 1011.4 |
| 20260509203939 | 59 | 333 | 0.0 | 1.0 | 0.00 | 0.00 | 0.00 | 84 | 1011.4 |
| 20260509203435 | 58 | 328 | 0.0 | 0.0 | 0.00 | 0.00 | 0.00 | 85 | 1011.6 |
| 20260509202933 | 58 | 341 | 1.0 | 1.0 | 0.00 | 0.00 | 0.00 | 85 | 1011.6 |
| 20260509202429 | 58 | 324 | 1.0 | 1.0 | 0.00 | 0.00 | 0.00 | 85 | 1011.6 |
| 20260509201924 | 58 | 333 | 1.0 | 1.0 | 0.00 | 0.00 | 0.00 | 85 | 1011.7 |
| 20260509201419 | 58 | 315 | 1.0 | 1.0 | 0.00 | 0.00 | 0.00 | 85 | 1011.6 |
| 20260509200917 | 58 | 315 | 1.0 | 2.0 | 0.00 | 0.00 | 0.00 | 85 | 1011.2 |
| 20260509200416 | 58 | 332 | 0.0 | 0.0 | 0.00 | 0.00 | 0.00 | 85 | 1011.2 |
| 20260509195913 | 58 | 339 | 0.0 | 0.0 | 0.00 | 0.00 | 0.00 | 85 | 1010.8 |
| 20260509195409 | 58 | 10 | 1.0 | 1.0 | 0.00 | 0.00 | 0.00 | 85 | 1011.1 |
| 20260509194908 | 58 | 346 | 0.0 | 1.0 | 0.00 | 0.00 | 0.00 | 85 | 1011.2 |
| 20260509194405 | 58 | 20 | 3.0 | 3.0 | 0.00 | 0.00 | 0.00 | 85 | 1011.6 |
| 20260509193901 | 58 | 5 | 1.0 | 1.0 | 0.00 | 0.00 | 0.00 | 85 | 1011.8 |
| 20260509193401 | 58 | 345 | 1.0 | 1.0 | 0.00 | 0.00 | 0.00 | 84 | 1011.9 |
| 20260509192857 | 58 | 314 | 2.0 | 2.0 | 0.00 | 0.00 | 0.00 | 84 | 1011.6 |
| 20260509192354 | 59 | 346 | 2.0 | 2.0 | 0.00 | 0.00 | 0.00 | 83 | 1011.7 |
| 20260509191849 | 60 | 31 | 4.0 | 5.0 | 0.00 | 0.00 | 0.00 | 80 | 1011.9 |
| 20260509191345 | 62 | 2 | 0.0 | 1.0 | 0.00 | 0.00 | 0.00 | 79 | 1011.7 |
| 20260509190841 | 59 | 335 | 1.0 | 1.0 | 0.00 | 0.00 | 0.00 | 81 | 1011.7 |
| 20260509190338 | 60 | 16 | 2.0 | 2.0 | 0.00 | 0.00 | 0.00 | 81 | 1011.8 |
| 20260509185836 | 60 | 356 | 1.0 | 2.0 | 0.00 | 0.00 | 0.00 | 83 | 1011.8 |
| 20260509185332 | 59 | 321 | 1.0 | 2.0 | 0.00 | 0.00 | 0.00 | 83 | 1012.1 |
| 20260509184830 | 59 | 1 | 1.0 | 1.0 | 0.00 | 0.00 | 0.00 | 84 | 1012.4 |
| 20260509184327 | 58 | 359 | 0.0 | 0.0 | 0.00 | 0.00 | 0.00 | 85 | 1012.5 |
| 20260509183823 | 58 | 145 | 3.0 | 3.0 | 0.00 | 0.00 | 0.00 | 85 | 1012.2 |
| 20260509183318 | 58 | 256 | 1.0 | 1.0 | 0.00 | 0.00 | 0.00 | 86 | 1012.4 |
| 20260509182814 | 58 | 356 | 0.0 | 1.0 | 0.00 | 0.00 | 0.00 | 87 | 1012.3 |
| 20260509182312 | 57 | 15 | 1.0 | 1.0 | 0.00 | 0.00 | 0.00 | 87 | 1012.4 |
| 20260509181809 | 57 | 17 | 0.0 | 1.0 | 0.00 | 0.00 | 0.00 | 88 | 1012.3 |
| 20260509181306 | 56 | 158 | 2.0 | 2.0 | 0.00 | 0.00 | 0.00 | 88 | 1012.2 |
| 20260509180804 | 57 | 19 | 0.0 | 1.0 | 0.00 | 0.00 | 0.00 | 88 | 1012.2 |
| 20260509180259 | 57 | 21 | 0.0 | 1.0 | 0.00 | 0.00 | 0.00 | 89 | 1012.3 |
| 20260509175756 | 56 | 340 | 0.0 | 1.0 | 0.00 | 0.00 | 0.00 | 89 | 1012.1 |
| 20260509175252 | 56 | 309 | 0.0 | 0.0 | 0.00 | 0.00 | 0.00 | 90 | 1012.4 |
| 20260509174748 | 55 | 298 | 0.0 | 0.0 | 0.00 | 0.00 | 0.00 | 91 | 1012.5 |
| 20260509174244 | 56 | 326 | 0.0 | 0.0 | 0.00 | 0.00 | 0.00 | 92 | 1012.6 |
| 20260509173740 | 55 | 323 | 0.0 | 0.0 | 0.00 | 0.00 | 0.00 | 92 | 1012.6 |
| 20260509173236 | 55 | 315 | 0.0 | 0.0 | 0.00 | 0.00 | 0.00 | 92 | 1012.7 |
| 20260509172732 | 55 | 306 | 0.0 | 1.0 | 0.00 | 0.00 | 0.00 | 92 | 1012.7 |
| 20260509172229 | 55 | 310 | 0.0 | 0.0 | 0.00 | 0.00 | 0.00 | 93 | 1012.8 |
| 20260509171724 | 54 | 312 | 0.0 | 0.0 | 0.00 | 0.00 | 0.00 | 93 | 1013.1 |
| 20260509171221 | 54 | 304 | 0.0 | 0.0 | 0.00 | 0.00 | 0.00 | 93 | 1013.1 |
| 20260509170718 | 55 | 295 | 2.0 | 2.0 | 0.00 | 0.00 | 0.00 | 93 | 1012.9 |
| 20260509170214 | 55 | 295 | 0.0 | 1.0 | 0.00 | 0.00 | 0.00 | 93 | 1013.2 |
| 20260509165712 | 54 | 345 | 1.0 | 1.0 | 0.00 | 0.00 | 0.00 | 93 | 1013.1 |
| 20260509165207 | 54 | 289 | 0.0 | 1.0 | 0.00 | 0.00 | 0.00 | 93 | 1013.1 |
| 20260509164704 | 53 | 272 | 1.0 | 2.0 | 0.00 | 0.00 | 0.00 | 93 | 1013.1 |
| 20260509164159 | 53 | 142 | 2.0 | 2.0 | 0.00 | 0.00 | 0.00 | 93 | 1013.1 |
| 20260509163657 | 53 | 178 | 1.0 | 2.0 | 0.00 | 0.00 | 0.00 | 93 | 1013.2 |
| 20260509163153 | 53 | 158 | 3.0 | 3.0 | 0.00 | 0.00 | 0.00 | 93 | 1013.1 |
| 20260509162651 | 53 | 186 | 1.0 | 1.0 | 0.00 | 0.00 | 0.00 | 93 | 1012.7 |
| 20260509162146 | 53 | 169 | 2.0 | 2.0 | 0.00 | 0.00 | 0.00 | 93 | 1012.5 |
| 20260509161642 | 53 | 70 | 1.0 | 1.0 | 0.00 | 0.00 | 0.00 | 92 | 1012.4 |
| 20260509161138 | 53 | 343 | 3.0 | 3.0 | 0.00 | 0.00 | 0.00 | 92 | 1012.3 |
| 20260509160634 | 52 | 349 | 1.0 | 1.0 | 0.00 | 0.00 | 0.00 | 92 | 1012.3 |
| 20260509160129 | 53 | 97 | 3.0 | 5.0 | 0.00 | 0.00 | 0.00 | 92 | 1012.5 |
| 20260509155626 | 53 | 11 | 3.0 | 3.0 | 0.00 | 0.00 | 0.00 | 92 | 1012.6 |
| 20260509155122 | 53 | 347 | 0.0 | 1.0 | 0.00 | 0.00 | 0.00 | 91 | 1012.6 |
| 20260509154618 | 53 | 353 | 0.0 | 0.0 | 0.00 | 0.00 | 0.00 | 91 | 1013.0 |
| 20260509154115 | 53 | 355 | 1.0 | 1.0 | 0.00 | 0.00 | 0.00 | 91 | 1013.1 |
| 20260509153612 | 53 | 53 | 0.0 | 1.0 | 0.00 | 0.00 | 0.00 | 91 | 1013.6 |
| 20260509153109 | 53 | 268 | 0.0 | 0.0 | 0.00 | 0.00 | 0.00 | 90 | 1013.6 |
| 20260509152605 | 53 | 247 | 0.0 | 0.0 | 0.00 | 0.00 | 0.00 | 90 | 1013.8 |
| 20260509152103 | 53 | 242 | 0.0 | 1.0 | 0.00 | 0.00 | 0.00 | 89 | 1013.9 |
| 20260509151558 | 53 | 314 | 0.0 | 0.0 | 0.00 | 0.00 | 0.00 | 89 | 1013.9 |
| 20260509151056 | 54 | 321 | 0.0 | 0.0 | 0.00 | 0.00 | 0.00 | 88 | 1013.9 |
| 20260509150554 | 54 | 333 | 0.0 | 0.0 | 0.00 | 0.00 | 0.00 | 88 | 1013.9 |
| 20260509150052 | 54 | 301 | 0.0 | 1.0 | 0.00 | 0.00 | 0.00 | 87 | 1013.6 |
| 20260509145547 | 54 | 330 | 0.0 | 0.0 | 0.00 | 0.00 | 0.00 | 87 | 1013.7 |
| 20260509145043 | 54 | 336 | 0.0 | 0.0 | 0.00 | 0.00 | 0.00 | 86 | 1013.5 |
| 20260509144540 | 54 | 340 | 0.0 | 0.0 | 0.00 | 0.00 | 0.00 | 86 | 1013.5 |
| 20260509144037 | 55 | 329 | 0.0 | 0.0 | 0.00 | 0.00 | 0.00 | 86 | 1013.3 |
| 20260509143534 | 55 | 300 | 1.0 | 1.0 | 0.00 | 0.00 | 0.00 | 84 | 1013.4 |
| 20260509143033 | 55 | 45 | 0.0 | 1.0 | 0.00 | 0.00 | 0.00 | 83 | 1013.4 |
| 20260509142533 | 55 | 324 | 0.0 | 0.0 | 0.00 | 0.00 | 0.00 | 82 | 1013.0 |
| 20260509142029 | 55 | 327 | 0.0 | 0.0 | 0.00 | 0.00 | 0.00 | 81 | 1013.3 |
| 20260509141525 | 55 | 321 | 1.0 | 1.0 | 0.00 | 0.00 | 0.00 | 79 | 1013.1 |
| 20260509141022 | 56 | 314 | 0.0 | 0.0 | 0.00 | 0.00 | 0.00 | 79 | 1013.3 |
| 20260509140519 | 55 | 299 | 0.0 | 1.0 | 0.00 | 0.00 | 0.00 | 78 | 1013.0 |
| 20260509140017 | 55 | 324 | 1.0 | 1.0 | 0.00 | 0.00 | 0.00 | 79 | 1013.2 |
| 20260509135514 | 55 | 173 | 3.0 | 5.0 | 0.00 | 0.00 | 0.00 | 79 | 1013.0 |
| 20260509135011 | 55 | 332 | 0.0 | 1.0 | 0.00 | 0.00 | 0.00 | 80 | 1013.2 |
| 20260509134508 | 55 | 234 | 1.0 | 2.0 | 0.00 | 0.00 | 0.00 | 80 | 1013.1 |
| 20260509134006 | 55 | 67 | 1.0 | 1.0 | 0.00 | 0.00 | 0.00 | 81 | 1013.0 |
| 20260509133502 | 55 | 309 | 0.0 | 1.0 | 0.00 | 0.00 | 0.00 | 81 | 1013.0 |
| 20260509133000 | 55 | 257 | 1.0 | 2.0 | 0.00 | 0.00 | 0.00 | 81 | 1013.0 |
| 20260509132458 | 54 | 127 | 3.0 | 5.0 | 0.00 | 0.00 | 0.00 | 81 | 1013.0 |
| 20260509131955 | 54 | 58 | 1.0 | 2.0 | 0.00 | 0.00 | 0.00 | 82 | 1012.9 |
| 20260509131452 | 54 | 108 | 3.0 | 3.0 | 0.00 | 0.00 | 0.00 | 83 | 1013.0 |
| 20260509130949 | 53 | 61 | 1.0 | 2.0 | 0.00 | 0.00 | 0.00 | 84 | 1013.1 |
| 20260509130444 | 54 | 324 | 0.0 | 0.0 | 0.00 | 0.00 | 0.00 | 84 | 1013.0 |
| 20260509125941 | 53 | 354 | 0.0 | 0.0 | 0.00 | 0.00 | 0.00 | 84 | 1012.4 |
| 20260509125438 | 53 | 329 | 0.0 | 0.0 | 0.00 | 0.00 | 0.00 | 84 | 1012.4 |
| 20260509124934 | 53 | 338 | 0.0 | 0.0 | 0.00 | 0.00 | 0.00 | 85 | 1012.3 |
| 20260509124431 | 53 | 333 | 1.0 | 1.0 | 0.00 | 0.00 | 0.00 | 84 | 1012.2 |
| 20260509123928 | 53 | 7 | 1.0 | 2.0 | 0.00 | 0.00 | 0.00 | 84 | 1012.4 |
| 20260509123426 | 53 | 355 | 3.0 | 3.0 | 0.00 | 0.00 | 0.00 | 83 | 1012.3 |
| 20260509122921 | 54 | 335 | 1.0 | 1.0 | 0.00 | 0.00 | 0.00 | 83 | 1012.7 |
| 20260509122419 | 54 | 339 | 0.0 | 0.0 | 0.00 | 0.00 | 0.00 | 82 | 1012.8 |
| 20260509121915 | 54 | 329 | 0.0 | 0.0 | 0.00 | 0.00 | 0.00 | 81 | 1013.0 |
| 20260509121412 | 54 | 324 | 0.0 | 0.0 | 0.00 | 0.00 | 0.00 | 81 | 1013.1 |
| 20260509120910 | 54 | 304 | 0.0 | 0.0 | 0.00 | 0.00 | 0.00 | 81 | 1013.0 |
| 20260509120408 | 53 | 303 | 0.0 | 1.0 | 0.00 | 0.00 | 0.00 | 81 | 1013.1 |
| 20260509115906 | 53 | 318 | 0.0 | 0.0 | 0.00 | 0.00 | 0.00 | 81 | 1012.9 |
| 20260509115403 | 53 | 328 | 0.0 | 0.0 | 0.00 | 0.00 | 0.00 | 81 | 1012.7 |
| 20260509114900 | 53 | 321 | 0.0 | 0.0 | 0.00 | 0.00 | 0.00 | 81 | 1012.5 |
| 20260509114359 | 53 | 347 | 1.0 | 1.0 | 0.00 | 0.00 | 0.00 | 81 | 1012.7 |
| 20260509113858 | 53 | 338 | 0.0 | 0.0 | 0.00 | 0.00 | 0.00 | 81 | 1012.5 |
| 20260509113355 | 53 | 322 | 1.0 | 1.0 | 0.00 | 0.00 | 0.00 | 81 | 1012.8 |
| 20260509112851 | 53 | 312 | 1.0 | 1.0 | 0.00 | 0.00 | 0.00 | 81 | 1012.8 |
| 20260509112348 | 53 | 313 | 0.0 | 0.0 | 0.00 | 0.00 | 0.00 | 81 | 1012.5 |
| 20260509111846 | 53 | 326 | 0.0 | 0.0 | 0.00 | 0.00 | 0.00 | 81 | 1012.2 |
| 20260509111342 | 53 | 358 | 0.0 | 0.0 | 0.00 | 0.00 | 0.00 | 81 | 1012.5 |
| 20260509110840 | 53 | 247 | 1.0 | 2.0 | 0.00 | 0.00 | 0.00 | 81 | 1012.3 |
| 20260509110336 | 53 | 13 | 1.0 | 1.0 | 0.00 | 0.00 | 0.00 | 81 | 1012.3 |
| 20260509105834 | 53 | 20 | 1.0 | 2.0 | 0.00 | 0.00 | 0.00 | 80 | 1012.1 |
| 20260509105332 | 53 | 265 | 1.0 | 1.0 | 0.00 | 0.00 | 0.00 | 80 | 1012.4 |
| 20260509104829 | 53 | 321 | 1.0 | 1.0 | 0.00 | 0.00 | 0.00 | 80 | 1012.1 |
| 20260509104325 | 53 | 12 | 1.0 | 2.0 | 0.00 | 0.00 | 0.00 | 80 | 1012.1 |
| 20260509103823 | 53 | 0 | 1.0 | 1.0 | 0.00 | 0.00 | 0.00 | 80 | 1012.2 |
| 20260509103320 | 53 | 358 | 1.0 | 1.0 | 0.00 | 0.00 | 0.00 | 80 | 1012.1 |
| 20260509102820 | 53 | 336 | 0.0 | 0.0 | 0.00 | 0.00 | 0.00 | 80 | 1012.2 |
| 20260509102316 | 53 | 330 | 0.0 | 0.0 | 0.00 | 0.00 | 0.00 | 80 | 1012.3 |
| 20260509101812 | 53 | 318 | 0.0 | 1.0 | 0.00 | 0.00 | 0.00 | 80 | 1012.2 |
| 20260509101308 | 53 | 343 | 0.0 | 0.0 | 0.00 | 0.00 | 0.00 | 80 | 1012.1 |
| 20260509100806 | 53 | 348 | 0.0 | 0.0 | 0.00 | 0.00 | 0.00 | 80 | 1012.2 |
| 20260509100303 | 53 | 14 | 0.0 | 0.0 | 0.00 | 0.00 | 0.00 | 79 | 1012.2 |
| 20260509095759 | 53 | 334 | 0.0 | 0.0 | 0.00 | 0.00 | 0.00 | 79 | 1012.1 |
| 20260509095257 | 53 | 319 | 0.0 | 1.0 | 0.00 | 0.00 | 0.00 | 79 | 1012.0 |
| 20260509094753 | 53 | 346 | 0.0 | 0.0 | 0.00 | 0.00 | 0.00 | 79 | 1012.1 |
| 20260509094250 | 53 | 351 | 0.0 | 0.0 | 0.00 | 0.00 | 0.00 | 79 | 1011.9 |
| 20260509093748 | 53 | 347 | 0.0 | 0.0 | 0.00 | 0.00 | 0.00 | 78 | 1012.1 |
| 20260509093245 | 53 | 353 | 0.0 | 0.0 | 0.00 | 0.00 | 0.00 | 78 | 1012.1 |
| 20260509092744 | 53 | 358 | 2.0 | 2.0 | 0.00 | 0.00 | 0.00 | 78 | 1012.1 |
| 20260509092241 | 53 | 337 | 0.0 | 0.0 | 0.00 | 0.00 | 0.00 | 78 | 1012.1 |
| 20260509091739 | 53 | 330 | 0.0 | 0.0 | 0.00 | 0.00 | 0.00 | 78 | 1012.1 |
| 20260509091235 | 53 | 336 | 0.0 | 0.0 | 0.00 | 0.00 | 0.00 | 78 | 1012.1 |
| 20260509090733 | 53 | 343 | 0.0 | 0.0 | 0.00 | 0.00 | 0.00 | 78 | 1012.1 |
| 20260509090230 | 53 | 346 | 0.0 | 0.0 | 0.00 | 0.00 | 0.00 | 78 | 1012.0 |
| 20260509085727 | 53 | 329 | 0.0 | 0.0 | 0.00 | 0.00 | 0.00 | 77 | 1012.1 |
| 20260509085224 | 53 | 342 | 0.0 | 0.0 | 0.00 | 0.00 | 0.00 | 77 | 1012.2 |
| 20260509084721 | 53 | 1 | 0.0 | 0.0 | 0.00 | 0.00 | 0.00 | 77 | 1012.2 |
| 20260509084217 | 53 | 336 | 0.0 | 1.0 | 0.00 | 0.00 | 0.00 | 77 | 1012.4 |
| 20260509083716 | 53 | 336 | 0.0 | 0.0 | 0.00 | 0.00 | 0.00 | 76 | 1012.5 |
| 20260509083212 | 53 | 343 | 0.0 | 1.0 | 0.00 | 0.00 | 0.00 | 76 | 1012.4 |
| 20260509082709 | 53 | 66 | 1.0 | 2.0 | 0.00 | 0.00 | 0.00 | 75 | 1012.5 |
| 20260509082205 | 54 | 345 | 0.0 | 0.0 | 0.00 | 0.00 | 0.00 | 75 | 1012.3 |
| 20260509081702 | 54 | 100 | 2.0 | 3.0 | 0.00 | 0.00 | 0.00 | 74 | 1012.6 |
| 20260509081159 | 54 | 347 | 1.0 | 1.0 | 0.00 | 0.00 | 0.00 | 74 | 1012.2 |
| 20260509080658 | 53 | 12 | 1.0 | 1.0 | 0.00 | 0.00 | 0.00 | 75 | 1012.2 |
| 20260509080155 | 53 | 354 | 0.0 | 0.0 | 0.00 | 0.00 | 0.00 | 75 | 1012.4 |
| 20260509075654 | 53 | 332 | 0.0 | 0.0 | 0.00 | 0.00 | 0.00 | 75 | 1012.3 |
| 20260509075151 | 53 | 346 | 0.0 | 0.0 | 0.00 | 0.00 | 0.00 | 75 | 1012.5 |
| 20260509074647 | 54 | 350 | 0.0 | 0.0 | 0.00 | 0.00 | 0.00 | 74 | 1012.6 |
| 20260509074144 | 53 | 347 | 0.0 | 0.0 | 0.00 | 0.00 | 0.00 | 74 | 1012.6 |
| 20260509073641 | 54 | 345 | 0.0 | 0.0 | 0.00 | 0.00 | 0.00 | 74 | 1012.5 |
| 20260509073137 | 54 | 348 | 0.0 | 1.0 | 0.00 | 0.00 | 0.00 | 73 | 1012.6 |
| 20260509072634 | 54 | 7 | 1.0 | 2.0 | 0.00 | 0.00 | 0.00 | 73 | 1012.4 |
| 20260509072131 | 54 | 14 | 1.0 | 2.0 | 0.00 | 0.00 | 0.00 | 73 | 1012.6 |
| 20260509071627 | 54 | 348 | 0.0 | 1.0 | 0.00 | 0.00 | 0.00 | 73 | 1012.8 |
| 20260509071125 | 54 | 23 | 2.0 | 2.0 | 0.00 | 0.00 | 0.00 | 73 | 1012.6 |
| 20260509070622 | 54 | 351 | 2.0 | 2.0 | 0.00 | 0.00 | 0.00 | 72 | 1012.8 |
| 20260509070118 | 54 | 12 | 1.0 | 2.0 | 0.00 | 0.00 | 0.00 | 72 | 1012.8 |
| 20260509065614 | 54 | 351 | 2.0 | 2.0 | 0.00 | 0.00 | 0.00 | 72 | 1013.0 |
| 20260509065110 | 54 | 7 | 2.0 | 2.0 | 0.00 | 0.00 | 0.00 | 73 | 1012.8 |
| 20260509064607 | 54 | 341 | 1.0 | 1.0 | 0.00 | 0.00 | 0.00 | 73 | 1012.8 |
| 20260509064106 | 54 | 341 | 1.0 | 2.0 | 0.00 | 0.00 | 0.00 | 74 | 1012.7 |
| 20260509063602 | 54 | 16 | 2.0 | 2.0 | 0.00 | 0.00 | 0.00 | 73 | 1012.9 |
| 20260509063058 | 54 | 352 | 1.0 | 1.0 | 0.00 | 0.00 | 0.00 | 73 | 1013.1 |
| 20260509062555 | 54 | 355 | 1.0 | 1.0 | 0.00 | 0.00 | 0.00 | 73 | 1012.7 |
| 20260509062053 | 54 | 352 | 1.0 | 1.0 | 0.00 | 0.00 | 0.00 | 73 | 1012.8 |
| 20260509061549 | 54 | 337 | 1.0 | 1.0 | 0.00 | 0.00 | 0.00 | 73 | 1013.0 |
| 20260509061047 | 54 | 1 | 1.0 | 1.0 | 0.00 | 0.00 | 0.00 | 73 | 1013.0 |
| 20260509060544 | 54 | 352 | 1.0 | 1.0 | 0.00 | 0.00 | 0.00 | 73 | 1012.8 |
| 20260509060040 | 54 | 357 | 4.0 | 5.0 | 0.00 | 0.00 | 0.00 | 73 | 1013.0 |
| 20260509055536 | 55 | 11 | 2.0 | 2.0 | 0.00 | 0.00 | 0.00 | 74 | 1013.1 |
| 20260509055032 | 55 | 356 | 1.0 | 2.0 | 0.00 | 0.00 | 0.00 | 74 | 1013.0 |
| 20260509054529 | 55 | 333 | 1.0 | 1.0 | 0.00 | 0.00 | 0.00 | 74 | 1012.9 |
| 20260509054027 | 55 | 9 | 2.0 | 2.0 | 0.00 | 0.00 | 0.00 | 74 | 1013.0 |
| 20260509053526 | 55 | 339 | 1.0 | 1.0 | 0.00 | 0.00 | 0.00 | 74 | 1013.0 |
| 20260509053022 | 55 | 356 | 3.0 | 3.0 | 0.00 | 0.00 | 0.00 | 75 | 1013.0 |
| 20260509052520 | 55 | 333 | 1.0 | 1.0 | 0.00 | 0.00 | 0.00 | 75 | 1013.0 |
| 20260509052018 | 55 | 345 | 1.0 | 2.0 | 0.00 | 0.00 | 0.00 | 75 | 1013.1 |
| 20260509051515 | 55 | 359 | 1.0 | 1.0 | 0.00 | 0.00 | 0.00 | 76 | 1013.1 |
| 20260509051012 | 55 | 341 | 0.0 | 0.0 | 0.00 | 0.00 | 0.00 | 76 | 1013.3 |
| 20260509050508 | 55 | 352 | 1.0 | 1.0 | 0.00 | 0.00 | 0.00 | 76 | 1013.2 |
| 20260509050005 | 55 | 352 | 1.0 | 1.0 | 0.00 | 0.00 | 0.00 | 76 | 1013.4 |
| 20260509045502 | 55 | 341 | 1.0 | 2.0 | 0.00 | 0.00 | 0.00 | 77 | 1013.3 |
| 20260509044959 | 55 | 6 | 1.0 | 1.0 | 0.00 | 0.00 | 0.00 | 77 | 1013.4 |
| 20260509044457 | 55 | 351 | 0.0 | 1.0 | 0.00 | 0.00 | 0.00 | 77 | 1013.4 |
| 20260509043954 | 55 | 346 | 0.0 | 0.0 | 0.00 | 0.00 | 0.00 | 77 | 1013.7 |
| 20260509043449 | 55 | 338 | 0.0 | 0.0 | 0.00 | 0.00 | 0.00 | 77 | 1013.5 |
| 20260509042945 | 55 | 327 | 0.0 | 0.0 | 0.00 | 0.00 | 0.00 | 76 | 1013.5 |
| 20260509042442 | 55 | 325 | 0.0 | 0.0 | 0.00 | 0.00 | 0.00 | 75 | 1013.5 |
| 20260509041938 | 55 | 317 | 0.0 | 1.0 | 0.00 | 0.00 | 0.00 | 74 | 1013.4 |
| 20260509041435 | 56 | 347 | 1.0 | 1.0 | 0.00 | 0.00 | 0.00 | 73 | 1013.2 |
| 20260509040933 | 56 | 337 | 0.0 | 0.0 | 0.00 | 0.00 | 0.00 | 72 | 1013.3 |
| 20260509040431 | 56 | 340 | 0.0 | 0.0 | 0.00 | 0.00 | 0.00 | 71 | 1013.5 |
| 20260509035928 | 57 | 321 | 0.0 | 0.0 | 0.00 | 0.00 | 0.00 | 70 | 1013.4 |
| 20260509035425 | 57 | 342 | 0.0 | 0.0 | 0.00 | 0.00 | 0.00 | 69 | 1013.6 |
| 20260509034921 | 57 | 334 | 0.0 | 0.0 | 0.00 | 0.00 | 0.00 | 69 | 1013.3 |
| 20260509034419 | 57 | 359 | 0.0 | 0.0 | 0.00 | 0.00 | 0.00 | 70 | 1013.7 |
| 20260509033916 | 57 | 338 | 0.0 | 0.0 | 0.00 | 0.00 | 0.00 | 70 | 1013.6 |
| 20260509033413 | 57 | 337 | 0.0 | 0.0 | 0.00 | 0.00 | 0.00 | 71 | 1013.8 |
| 20260509032909 | 57 | 352 | 0.0 | 0.0 | 0.00 | 0.00 | 0.00 | 72 | 1013.8 |
| 20260509032407 | 57 | 341 | 0.0 | 0.0 | 0.00 | 0.00 | 0.00 | 71 | 1013.8 |
| 20260509031905 | 57 | 14 | 0.0 | 0.0 | 0.00 | 0.00 | 0.00 | 71 | 1013.8 |
| 20260509031402 | 57 | 347 | 1.0 | 1.0 | 0.00 | 0.00 | 0.00 | 71 | 1013.6 |
| 20260509030859 | 57 | 345 | 0.0 | 0.0 | 0.00 | 0.00 | 0.00 | 68 | 1013.8 |
| 20260509030357 | 58 | 326 | 0.0 | 0.0 | 0.00 | 0.00 | 0.00 | 67 | 1013.9 |
| 20260509025854 | 58 | 320 | 0.0 | 0.0 | 0.00 | 0.00 | 0.00 | 66 | 1013.9 |
| 20260509025349 | 58 | 329 | 0.0 | 0.0 | 0.00 | 0.00 | 0.00 | 66 | 1013.9 |
| 20260509024844 | 58 | 338 | 0.0 | 0.0 | 0.00 | 0.00 | 0.00 | 66 | 1014.0 |
| 20260509024341 | 58 | 340 | 0.0 | 0.0 | 0.00 | 0.00 | 0.00 | 66 | 1013.8 |
| 20260509023838 | 58 | 330 | 1.0 | 1.0 | 0.00 | 0.00 | 0.00 | 66 | 1013.7 |
| 20260509023336 | 57 | 347 | 0.0 | 0.0 | 0.00 | 0.00 | 0.00 | 67 | 1013.7 |
| 20260509022832 | 57 | 159 | 1.0 | 2.0 | 0.00 | 0.00 | 0.00 | 67 | 1013.7 |
| 20260509022330 | 57 | 311 | 0.0 | 0.0 | 0.00 | 0.00 | 0.00 | 67 | 1013.6 |
| 20260509021826 | 57 | 326 | 0.0 | 0.0 | 0.00 | 0.00 | 0.00 | 66 | 1013.4 |
| 20260509021323 | 57 | 341 | 0.0 | 0.0 | 0.00 | 0.00 | 0.00 | 65 | 1013.3 |
| 20260509020821 | 58 | 329 | 0.0 | 0.0 | 0.00 | 0.00 | 0.00 | 64 | 1013.5 |
| 20260509020319 | 58 | 335 | 0.0 | 0.0 | 0.00 | 0.00 | 0.00 | 63 | 1013.3 |
| 20260509015816 | 58 | 340 | 0.0 | 1.0 | 0.00 | 0.00 | 0.00 | 62 | 1013.3 |
| 20260509015314 | 58 | 340 | 1.0 | 1.0 | 0.00 | 0.00 | 0.00 | 62 | 1013.4 |
| 20260509014810 | 58 | 346 | 0.0 | 1.0 | 0.00 | 0.00 | 0.00 | 61 | 1013.5 |
| 20260509014308 | 59 | 348 | 0.0 | 0.0 | 0.00 | 0.00 | 0.00 | 61 | 1013.3 |
| 20260509013804 | 59 | 335 | 0.0 | 0.0 | 0.00 | 0.00 | 0.00 | 60 | 1013.4 |
| 20260509013300 | 59 | 335 | 0.0 | 0.0 | 0.00 | 0.00 | 0.00 | 60 | 1013.4 |
| 20260509012757 | 59 | 344 | 0.0 | 0.0 | 0.00 | 0.00 | 0.00 | 59 | 1013.3 |
| 20260509012254 | 59 | 337 | 0.0 | 0.0 | 0.00 | 0.00 | 0.00 | 59 | 1013.4 |
| 20260509011751 | 59 | 333 | 0.0 | 0.0 | 0.00 | 0.00 | 0.00 | 60 | 1013.2 |
| 20260509011248 | 59 | 332 | 0.0 | 0.0 | 0.00 | 0.00 | 0.00 | 59 | 1013.4 |
| 20260509010746 | 60 | 336 | 0.0 | 0.0 | 0.00 | 0.00 | 0.00 | 58 | 1013.3 |
| 20260509010242 | 60 | 336 | 0.0 | 0.0 | 0.00 | 0.00 | 0.00 | 57 | 1013.2 |
| 20260509005740 | 60 | 325 | 0.0 | 0.0 | 0.00 | 0.00 | 0.00 | 56 | 1013.1 |
| 20260509005238 | 60 | 327 | 0.0 | 0.0 | 0.00 | 0.00 | 0.00 | 55 | 1013.2 |
| 20260509004737 | 61 | 322 | 0.0 | 0.0 | 0.00 | 0.00 | 0.00 | 55 | 1013.0 |
| 20260509004235 | 61 | 317 | 0.0 | 0.0 | 0.00 | 0.00 | 0.00 | 55 | 1013.1 |
| 20260509003733 | 61 | 287 | 0.0 | 1.0 | 0.00 | 0.00 | 0.00 | 55 | 1013.2 |
| 20260509003230 | 61 | 299 | 0.0 | 1.0 | 0.00 | 0.00 | 0.00 | 55 | 1013.1 |
| 20260509002727 | 61 | 286 | 3.0 | 3.0 | 0.00 | 0.00 | 0.00 | 54 | 1013.0 |
| 20260509002225 | 60 | 272 | 2.0 | 3.0 | 0.00 | 0.00 | 0.00 | 55 | 1013.1 |
| 20260509001722 | 60 | 321 | 0.0 | 0.0 | 0.00 | 0.00 | 0.00 | 56 | 1013.2 |
| 20260509001218 | 60 | 324 | 0.0 | 0.0 | 0.00 | 0.00 | 0.00 | 55 | 1012.8 |
| 20260509000716 | 60 | 332 | 0.0 | 0.0 | 0.00 | 0.00 | 0.00 | 56 | 1013.1 |
| 20260509000213 | 60 | 319 | 0.0 | 0.0 | 0.00 | 0.00 | 0.00 | 56 | 1013.0 |
| 20260508235710 | 60 | 324 | 0.0 | 0.0 | 0.00 | 0.00 | 0.00 | 57 | 1013.0 |
| 20260508235206 | 60 | 281 | 0.0 | 0.0 | 0.00 | 0.00 | 0.00 | 58 | 1013.0 |
| 20260508234704 | 61 | 326 | 0.0 | 0.0 | 0.00 | 0.00 | 0.00 | 54 | 1012.8 |
| 20260508234200 | 61 | 327 | 0.0 | 0.0 | 0.00 | 0.00 | 0.00 | 53 | 1012.9 |
| 20260508233659 | 62 | 322 | 0.0 | 0.0 | 0.00 | 0.00 | 0.00 | 53 | 1012.9 |
| 20260508233157 | 62 | 323 | 0.0 | 0.0 | 0.00 | 0.00 | 0.00 | 51 | 1012.8 |
| 20260508232654 | 63 | 324 | 2.0 | 3.0 | 0.00 | 0.00 | 0.00 | 50 | 1012.5 |
| 20260508232150 | 63 | 317 | 1.0 | 1.0 | 0.00 | 0.00 | 0.00 | 49 | 1012.4 |
| 20260508231649 | 63 | 311 | 3.0 | 5.0 | 0.00 | 0.00 | 0.00 | 49 | 1012.5 |
| 20260508231145 | 63 | 302 | 2.0 | 2.0 | 0.00 | 0.00 | 0.00 | 48 | 1012.3 |
| 20260508230642 | 63 | 272 | 2.0 | 3.0 | 0.00 | 0.00 | 0.00 | 49 | 1012.5 |
| 20260508230138 | 63 | 311 | 0.0 | 0.0 | 0.00 | 0.00 | 0.00 | 49 | 1012.5 |
| 20260508225636 | 63 | 305 | 2.0 | 2.0 | 0.00 | 0.00 | 0.00 | 48 | 1012.5 |
| 20260508225132 | 63 | 264 | 3.0 | 3.0 | 0.00 | 0.00 | 0.00 | 48 | 1012.4 |
| 20260508224630 | 63 | 313 | 2.0 | 3.0 | 0.00 | 0.00 | 0.00 | 47 | 1012.5 |
| 20260508224128 | 63 | 291 | 4.0 | 6.0 | 0.00 | 0.00 | 0.00 | 47 | 1012.6 |
| 20260508223625 | 63 | 309 | 0.0 | 0.0 | 0.00 | 0.00 | 0.00 | 47 | 1012.3 |
| 20260508223122 | 63 | 296 | 3.0 | 3.0 | 0.00 | 0.00 | 0.00 | 47 | 1012.4 |
| 20260508222619 | 63 | 300 | 3.0 | 6.0 | 0.00 | 0.00 | 0.00 | 47 | 1012.3 |
| 20260508222116 | 63 | 322 | 2.0 | 2.0 | 0.00 | 0.00 | 0.00 | 46 | 1012.3 |
| 20260508221613 | 63 | 318 | 1.0 | 2.0 | 0.00 | 0.00 | 0.00 | 46 | 1012.3 |
| 20260508221108 | 63 | 272 | 3.0 | 3.0 | 0.00 | 0.00 | 0.00 | 45 | 1012.2 |
| 20260508220605 | 63 | 269 | 5.0 | 7.0 | 0.00 | 0.00 | 0.00 | 45 | 1012.4 |
| 20260508215558 | 63 | 288 | 2.0 | 3.0 | 0.00 | 0.00 | 0.00 | 45 | 1012.4 |
| 20260508215055 | 63 | 298 | 3.0 | 5.0 | 0.00 | 0.00 | 0.00 | 44 | 1012.5 |
| 20260508214553 | 64 | 236 | 5.0 | 6.0 | 0.00 | 0.00 | 0.00 | 44 | 1012.5 |
| 20260508214049 | 64 | 299 | 4.0 | 6.0 | 0.00 | 0.00 | 0.00 | 43 | 1012.6 |
| 20260508213546 | 64 | 236 | 14.0 | 29.0 | 0.00 | 0.00 | 0.00 | 42 | 1012.7 |
| 20260508213042 | 64 | 291 | 8.0 | 11.0 | 0.00 | 0.00 | 0.00 | 42 | 1012.4 |